User: anonymous   Login
Location: Heilwood
(40.6210°N, 78.9150°W)
Time: 14:47:26
(UTC-04:00)
Language:

BREEZE-M DEB (TANK) - Orbit

View from above orbital plane
View from above orbital plane
View from above satellite
View from above satellite

Ground track
Ground track

The orbit data is extracted from the following two-line orbital elements,

1 29649U 06056B   17207.33371553 +.00001035 +00000-0 +29003-3 0  9990
2 29649 049.4944 205.1943 5366855 185.8131 163.9389 04.99683680189724
Epoch (UTC): 26 July 2017 08:00:33
Eccentricity: 0.5366855
inclination: 49.4944°
perigee height: 318 km
apogee height: 15830 km
right ascension of ascending node: 205.1943°
argument of perigee: 185.8131°
revolutions per day: 4.99683680
mean anomaly at epoch: 163.9389°
orbit number at epoch: 18972

The dashed part of the orbit path shows where the satellite is in the earth's shadow,  

DLR